カタログに戻る

QUIKSCAT

運用中科学SSO
NORAD 25789·PAYLOAD·🇺🇸 United States

打ち上げ Jun 20, 1999 から Vandenberg Space Force Base

Loading…

次のパス (今後24時間)

TLE

最新Source: Space-Track

元期: Sep 14, 2026, 14:51 UTC

1 25789U 99034A   26257.61943439  .00000226  00000-0  64400-4 0  9995
2 25789  98.2536 136.7312 0095450   8.3095 351.9654 14.51775557425491

AllMySatでQUIKSCATをリアルタイム追跡

Download on the App Store